Terug naar catalogus

STARLINK-36582

ActiefCommunicatieSSO
NORAD 67599·PAYLOAD·🇺🇸 United States

Gelanceerd Jan 29, 2026 vanaf Vandenberg Space Force Base

Loading…

Volgende Passages (komende 24 uur)

TLE

VersSource: CelesTrak SupGP

Epoch: Sep 15, 2026, 02:55 UTC

1 67599C 26018L   26258.12201389 -.00038251  00000+0 -11866-2 0  2584
2 67599  97.2841 321.6622 0000888  81.2896  22.9810 15.33480732    18

Volg STARLINK-36582 in realtime met AllMySat

Download on the App Store